Weather History for Blakely, GA

Change the Weather History Date:

Monday, November 18, 2013

  Actual Average (KDHN) Record (KDHN)
Temperature  
Mean Temperature 70 °F 58 °F  
Max Temperature 80 °F 70 °F 84 °F (1938)
Min Temperature 57 °F 46 °F 26 °F (1951)
Degree Days  
Heating Degree Days 0 8  
Month to date heating degree days 105  
Since 1 July heating degree days 164  
Cooling Degree Days 4    
Growing Degree Days 20 (Base 50)    
Moisture  
Dew Point 66 °F    
Average Humidity 83    
Maximum Humidity 100    
Minimum Humidity 52    
Precipitation  
Precipitation 0.00 in 0.16 in 1.73 in (1968)
Month to date precipitation 2.12  
Year to date precipitation 47.51  
Sea Level Pressure  
Sea Level Pressure 29.98 in    
Wind  
Wind Speed 4 mph (WNW)    
Max Wind Speed 9 mph    
Max Gust Speed -    
Visibility 8 miles    
Events Rain    
T = Trace of Precipitation, MM = Missing Value Source: NWS Daily Summary

Daily Weather History Graph

Daily Weather History Graph

Search for Another Location

Airport:

Trip Planner

Search our weather history database for the weather conditions in past years. The results will help you decide how hot, cold, wet, or windy it might be!

Date:

Astronomy

Nov. 18, 2013 Rise Set
Actual Time 7:09 AM EST 5:39 PM EST
Civil Twilight 6:44 AM EST 6:05 PM EST
Nautical Twilight 6:14 AM EST 6:34 PM EST
Astronomical Twilight 5:45 AM EST 7:03 PM EST
Moon 6:42 PM EST 7:57 AM EST
Length of Visible Light 11h 21m
Length of Day
10h 29m
Full, 99% of the Moon is Illuminated
Nov 18
Full
Nov 25
Last Quarter
Dec 2
New
Dec 9
First Quarter
Dec 17
Full

Hourly Weather History & Observations

Time (EST) Temp. Heat Index Dew Point Humidity Pressure Visibility Wind Dir Wind Speed Gust Speed Precip Events Conditions
12:15 AM 69.8 °F - 69.8 °F 100% 30.01 in 7.0 mi SW 4.6 mph - N/A   Overcast
12:35 AM 69.8 °F - 69.8 °F 100% 30.00 in 5.0 mi SSW 9.2 mph - N/A   Overcast
12:55 AM 71.6 °F - 71.6 °F 100% 29.99 in 7.0 mi SSW 6.9 mph - N/A   Overcast
1:15 AM 71.6 °F - 71.6 °F 100% 30.00 in 7.0 mi WSW 8.1 mph - N/A   Overcast
1:35 AM 71.6 °F - 71.6 °F 100% 29.99 in 7.0 mi SW 5.8 mph - N/A   Overcast
1:55 AM 71.6 °F - 71.6 °F 100% 29.99 in 7.0 mi SW 6.9 mph - N/A   Overcast
2:15 AM 71.6 °F - 71.6 °F 100% 29.98 in 7.0 mi WSW 6.9 mph - N/A   Overcast
2:35 AM 71.6 °F - 71.6 °F 100% 29.97 in 7.0 mi SW 6.9 mph - N/A   Overcast
2:55 AM 71.6 °F - 71.6 °F 100% 29.97 in 7.0 mi SW 5.8 mph - N/A   Overcast
3:15 AM 71.6 °F - 71.6 °F 100% 29.96 in 10.0 mi WSW 5.8 mph - N/A   Overcast
3:35 AM 71.6 °F - 71.6 °F 100% 29.96 in 10.0 mi WSW 6.9 mph - N/A   Overcast
3:55 AM 71.6 °F - 71.6 °F 100% 29.96 in 10.0 mi WSW 5.8 mph - N/A   Overcast
4:15 AM 71.6 °F - 71.6 °F 100% 29.96 in 10.0 mi SW 5.8 mph - N/A   Overcast
4:35 AM 71.6 °F - 71.6 °F 100% 29.96 in 5.0 mi SW 5.8 mph - N/A   Overcast
4:55 AM 71.6 °F - 71.6 °F 100% 29.97 in 4.0 mi WSW 4.6 mph - N/A   Overcast
5:15 AM 71.6 °F - 71.6 °F 100% 29.96 in 3.0 mi SW 3.5 mph - N/A   Light Drizzle
5:35 AM 71.6 °F - 71.6 °F 100% 29.96 in 7.0 mi SW 4.6 mph - N/A   Overcast
5:55 AM 71.6 °F - 71.6 °F 100% 29.95 in 7.0 mi SW 3.5 mph - N/A   Overcast
6:15 AM 71.6 °F - 71.6 °F 100% 29.95 in 5.0 mi Calm Calm - N/A   Overcast
6:35 AM 71.6 °F - 71.6 °F 100% 29.95 in 5.0 mi SW 3.5 mph - N/A   Light Drizzle
6:55 AM 71.6 °F - 71.6 °F 100% 29.95 in 7.0 mi SSW 3.5 mph - N/A   Overcast
7:15 AM 71.6 °F - 71.6 °F 100% 29.96 in 7.0 mi Calm Calm - N/A Rain Rain
7:35 AM 71.6 °F - 71.6 °F 100% 29.97 in 2.5 mi Calm Calm - N/A Rain Rain
7:55 AM 71.6 °F - 71.6 °F 100% 29.97 in 1.5 mi Calm Calm - N/A Rain Rain
8:15 AM 71.6 °F - 71.6 °F 100% 29.98 in 7.0 mi Calm Calm - N/A Rain Light Rain
8:35 AM 71.6 °F - 71.6 °F 100% 29.98 in 5.0 mi Calm Calm - N/A   Mostly Cloudy
8:55 AM 71.6 °F - 71.6 °F 100% 29.98 in 5.0 mi Calm Calm - N/A Rain Light Rain
9:15 AM 71.6 °F - 71.6 °F 100% 29.99 in 4.0 mi Calm Calm - N/A   Light Drizzle
9:35 AM 71.6 °F - 71.6 °F 100% 30.00 in 10.0 mi West 3.5 mph - N/A   Overcast
9:55 AM 73.4 °F - 73.4 °F 100% 30.00 in 10.0 mi Calm Calm - N/A   Overcast
10:15 AM 73.4 °F - 73.4 °F 100% 30.01 in 10.0 mi West 3.5 mph - N/A   Mostly Cloudy
10:35 AM 75.2 °F - 73.4 °F 94% 30.01 in 10.0 mi West 4.6 mph - N/A   Mostly Cloudy
10:55 AM 77.0 °F - 73.4 °F 89% 30.01 in 10.0 mi Calm Calm - N/A   Mostly Cloudy
11:15 AM 75.2 °F - 73.4 °F 94% 30.00 in 10.0 mi Calm Calm - N/A   Scattered Clouds
11:35 AM 77.0 °F - 71.6 °F 83% 30.00 in 10.0 mi Calm Calm - N/A   Mostly Cloudy
11:55 AM 78.8 °F - 73.4 °F 83% 30.00 in 7.0 mi Calm Calm - N/A Rain Rain
12:15 PM 75.2 °F - 73.4 °F 94% 29.99 in 10.0 mi Calm Calm - N/A   Overcast
12:35 PM 75.2 °F - 71.6 °F 89% 29.98 in 10.0 mi Calm Calm - N/A   Overcast
12:55 PM 77.0 °F - 69.8 °F 78% 29.98 in 10.0 mi NNW 6.9 mph - N/A   Overcast
1:15 PM 77.0 °F - 68.0 °F 74% 29.97 in 10.0 mi NNW 4.6 mph - N/A   Overcast
1:35 PM 78.8 °F - 68.0 °F 69% 29.96 in 10.0 mi North 4.6 mph - N/A   Scattered Clouds
1:55 PM 80.6 °F 83.2 °F 68.0 °F 65% 29.95 in 10.0 mi NNW 5.8 mph - N/A   Clear
2:15 PM 80.6 °F 82.7 °F 66.2 °F 61% 29.95 in 10.0 mi NNW 6.9 mph - N/A   Clear
2:35 PM 80.6 °F 82.7 °F 66.2 °F 61% 29.95 in 10.0 mi Calm Calm - N/A   Clear
2:55 PM 80.6 °F 82.3 °F 64.4 °F 58% 29.94 in 10.0 mi NW 3.5 mph - N/A   Clear
3:15 PM 78.8 °F - 64.4 °F 61% 29.94 in 10.0 mi West 3.5 mph - N/A   Clear
3:35 PM 78.8 °F - 66.2 °F 65% 29.94 in 10.0 mi Calm Calm - N/A   Clear
3:55 PM 77.0 °F - 68.0 °F 74% 29.94 in 10.0 mi Calm Calm - N/A   Clear
4:15 PM 73.4 °F - 68.0 °F 83% 29.93 in 10.0 mi Calm Calm - N/A   Clear
4:35 PM 75.2 °F - 69.8 °F 83% 29.93 in 10.0 mi SW 4.6 mph - N/A   Clear
4:55 PM 77.0 °F - 69.8 °F 78% 29.93 in 10.0 mi WSW 4.6 mph - N/A   Clear
5:15 PM 75.2 °F - 69.8 °F 83% 29.93 in 10.0 mi WSW 5.8 mph - N/A   Clear
5:35 PM 73.4 °F - 69.8 °F 88% 29.94 in 10.0 mi West 3.5 mph - N/A   Clear
5:55 PM 71.6 °F - 69.8 °F 94% 29.94 in 10.0 mi Calm Calm - N/A   Clear
6:15 PM 71.6 °F - 68.0 °F 88% 29.95 in 10.0 mi NW 3.5 mph - N/A   Clear
6:35 PM 71.6 °F - 64.4 °F 78% 29.96 in 10.0 mi Calm Calm - N/A   Clear
6:55 PM 68.0 °F - 62.6 °F 83% 29.97 in 10.0 mi WNW 3.5 mph - N/A   Clear
7:15 PM 69.8 °F - 57.2 °F 64% 29.97 in 10.0 mi NW 4.6 mph - N/A   Clear
7:35 PM 69.8 °F - 53.6 °F 56% 29.98 in 10.0 mi NNW 8.1 mph - N/A   Clear
7:55 PM 68.0 °F - 53.6 °F 60% 29.98 in 10.0 mi NNW 5.8 mph - N/A   Clear
8:15 PM 68.0 °F - 51.8 °F 56% 29.99 in 10.0 mi North 4.6 mph - N/A   Clear
8:35 PM 66.2 °F - 50.0 °F 56% 30.00 in 10.0 mi North 6.9 mph - N/A   Clear
8:55 PM 66.2 °F - 50.0 °F 56% 30.00 in 10.0 mi North 6.9 mph - N/A   Clear
9:15 PM 64.4 °F - 50.0 °F 59% 30.01 in 10.0 mi North 8.1 mph - N/A   Clear
9:35 PM 62.6 °F - 48.2 °F 59% 30.02 in 10.0 mi North 5.8 mph - N/A   Clear
9:55 PM 62.6 °F - 46.4 °F 55% 30.02 in 10.0 mi North 5.8 mph - N/A   Clear
10:15 PM 60.8 °F - 46.4 °F 59% 30.03 in 10.0 mi North 4.6 mph - N/A   Clear
10:35 PM 60.8 °F - 44.6 °F 55% 30.03 in 10.0 mi North 6.9 mph - N/A   Clear
10:55 PM 60.8 °F - 42.8 °F 52% 30.03 in 10.0 mi North 6.9 mph - N/A   Clear
11:15 PM 59.0 °F - 42.8 °F 55% 30.03 in 10.0 mi North 3.5 mph - N/A   Clear
11:35 PM 59.0 °F - 42.8 °F 55% 30.03 in 10.0 mi North 6.9 mph - N/A   Clear
11:55 PM 57.2 °F - 41.0 °F 55% 30.03 in 10.0 mi North 5.8 mph - N/A   Clear